Weather History for St. James, MN

Change the Weather History Date:

Monday, March 18, 2013

  Actual Average Record
Temperature  
Mean Temperature 25 °F -  
Max Temperature 35 °F 42 °F 80 °F (2012)
Min Temperature 15 °F 25 °F -2 °F (1989)
Degree Days  
Heating Degree Days 40    
Moisture  
Dew Point 15 °F    
Average Humidity 67    
Maximum Humidity 81    
Minimum Humidity 58    
Precipitation  
Precipitation 0.00 in - - ()
Sea Level Pressure  
Sea Level Pressure 29.75 in    
Wind  
Wind Speed 25 mph (WSW)    
Max Wind Speed 33 mph    
Max Gust Speed 44 mph    
Visibility 8 miles    
Events Snow    
Averages and records for this station are not official NWS values.
T = Trace of Precipitation, MM = Missing Value Source: NWS Daily Summary

Daily Weather History Graph

Daily Weather History Graph

Search for Another Location

Airport:

Trip Planner

Search our weather history database for the weather conditions in past years. The results will help you decide how hot, cold, wet, or windy it might be!

Date:

Astronomy

Mar. 18, 2013 Rise Set
Actual Time 7:24 AM CDT 7:28 PM CDT
Civil Twilight 6:55 AM CDT 7:57 PM CDT
Nautical Twilight 6:22 AM CDT 8:31 PM CDT
Astronomical Twilight 5:47 AM CDT 9:05 PM CDT
Moon 11:13 AM CDT (3/18) 1:40 AM CDT (3/18)
Length of Visible Light 13h 01m
Length of Day
12h 03m
Waxing Crescent, 41% of the Moon is Illuminated
Mar 18
Waxing Crescent
Mar 19
First Quarter
Mar 27
Full
Apr 2
Last Quarter
Apr 10
New

Hourly Weather History & Observations

Time (CDT) Temp. Windchill Dew Point Humidity Pressure Visibility Wind Dir Wind Speed Gust Speed Precip Events Conditions
12:15 AM 33.8 °F 20.8 °F 26.6 °F 75% 29.74 in 10.0 mi SE 26.5 mph 33.4 mph N/A   Overcast
12:35 AM 33.8 °F 21.3 °F 26.6 °F 75% 29.72 in 10.0 mi SE 24.2 mph 32.2 mph N/A   Overcast
1:14 AM 33.8 °F 20.1 °F 26.6 °F 75% 29.69 in 10.0 mi SE 29.9 mph 35.7 mph N/A   Overcast
1:35 AM 33.8 °F 20.3 °F 26.6 °F 75% 29.69 in 10.0 mi SSE 28.8 mph 38.0 mph N/A   Overcast
1:55 AM 33.8 °F 20.5 °F 26.6 °F 75% 29.68 in 10.0 mi SE 27.6 mph 32.2 mph N/A   Overcast
2:15 AM 33.8 °F 21.0 °F 26.6 °F 75% 29.68 in 10.0 mi SSE 25.3 mph 35.7 mph N/A   Overcast
2:35 AM 33.8 °F 21.6 °F 26.6 °F 75% 29.68 in 7.0 mi SSE 23.0 mph 31.1 mph N/A   Overcast
2:55 AM 33.8 °F 21.3 °F 26.6 °F 75% 29.68 in 1.5 mi SSE 24.2 mph 32.2 mph N/A Snow Light Snow
3:15 AM 33.8 °F 22.5 °F 28.4 °F 81% 29.68 in 1.2 mi SSE 19.6 mph 27.6 mph N/A Snow Light Snow
3:35 AM 33.8 °F 21.9 °F 28.4 °F 81% 29.68 in 2.5 mi SSE 21.9 mph 27.6 mph N/A Snow Light Snow
3:55 AM 33.8 °F 22.8 °F 28.4 °F 81% 29.68 in 4.0 mi SSE 18.4 mph - N/A Snow Light Snow
4:15 AM 33.8 °F 23.2 °F 28.4 °F 81% 29.67 in 5.0 mi SSE 17.3 mph 24.2 mph N/A Snow Light Snow
4:35 AM 33.8 °F 21.9 °F 28.4 °F 81% 29.66 in 5.0 mi SSE 21.9 mph 26.5 mph N/A   Haze
4:55 AM 33.8 °F 22.5 °F 28.4 °F 81% 29.66 in 7.0 mi SSE 19.6 mph - N/A   Overcast
5:15 AM 33.8 °F 23.2 °F 28.4 °F 81% 29.65 in 7.0 mi SSE 17.3 mph - N/A   Overcast
5:35 AM 33.8 °F 22.8 °F 28.4 °F 81% 29.64 in 5.0 mi SSE 18.4 mph 25.3 mph N/A   Haze
5:55 AM 33.8 °F 23.9 °F 28.4 °F 81% 29.63 in 4.0 mi SSE 15.0 mph - N/A   Haze
6:15 AM 33.8 °F 23.5 °F 28.4 °F 81% 29.62 in 5.0 mi South 16.1 mph - N/A   Haze
6:35 AM 33.8 °F 24.3 °F 28.4 °F 81% 29.62 in 5.0 mi South 13.8 mph - N/A   Haze
6:55 AM 33.8 °F 24.3 °F 28.4 °F 81% 29.62 in 4.0 mi South 13.8 mph 19.6 mph N/A   Haze
7:15 AM 35.6 °F 24.2 °F 28.4 °F 75% 29.63 in 5.0 mi West 21.9 mph 26.5 mph N/A Snow Light Snow
7:35 AM 32.0 °F 19.5 °F 24.8 °F 75% 29.65 in 7.0 mi West 21.9 mph 28.8 mph N/A   Overcast
7:54 AM 30.2 °F 18.1 °F 24.8 °F 80% 29.66 in 7.0 mi West 18.4 mph - N/A   Overcast
8:15 AM 28.4 °F 13.3 °F 21.2 °F 74% 29.66 in 10.0 mi West 27.6 mph 33.4 mph N/A   Overcast
8:35 AM 26.6 °F 12.0 °F 15.8 °F 64% 29.68 in 10.0 mi West 23.0 mph 29.9 mph N/A   Overcast
8:55 AM 24.8 °F 9.6 °F 15.8 °F 69% 29.69 in 10.0 mi West 23.0 mph 32.2 mph N/A   Overcast
9:15 AM 23.0 °F 6.3 °F 12.2 °F 63% 29.69 in 10.0 mi West 26.5 mph 32.2 mph N/A   Mostly Cloudy
9:35 AM 24.8 °F 9.3 °F 14.0 °F 64% 29.69 in 10.0 mi West 24.2 mph - N/A   Mostly Cloudy
9:55 AM 24.8 °F 9.3 °F 12.2 °F 59% 29.70 in 10.0 mi West 24.2 mph 31.1 mph N/A   Mostly Cloudy
10:15 AM 24.8 °F 9.3 °F 12.2 °F 59% 29.71 in 10.0 mi West 24.2 mph 28.8 mph N/A Snow Light Snow
10:34 AM 23.0 °F 6.0 °F 12.2 °F 63% 29.72 in 10.0 mi West 27.6 mph 32.2 mph N/A Snow Light Snow
10:55 AM 24.8 °F 8.4 °F 12.2 °F 59% 29.72 in 7.0 mi West 27.6 mph 34.5 mph N/A Snow Light Snow
11:15 AM 23.0 °F 6.3 °F 12.2 °F 63% 29.73 in 2.0 mi West 26.5 mph - N/A Snow Light Snow
11:35 AM 21.2 °F 3.3 °F 10.4 °F 63% 29.73 in 4.0 mi West 28.8 mph 38.0 mph N/A Snow Light Snow
11:54 AM 23.0 °F 6.6 °F 10.4 °F 59% 29.74 in 10.0 mi West 25.3 mph 33.4 mph N/A   Overcast
12:15 PM 23.0 °F 6.6 °F 10.4 °F 59% 29.74 in 10.0 mi West 25.3 mph 31.1 mph N/A   Overcast
12:35 PM 21.2 °F 3.5 °F 10.4 °F 63% 29.75 in 10.0 mi West 27.6 mph 31.1 mph N/A   Overcast
12:55 PM 21.2 °F 3.3 °F 8.6 °F 58% 29.75 in 10.0 mi West 28.8 mph - N/A   Overcast
1:14 PM 21.2 °F 3.5 °F 8.6 °F 58% 29.75 in 10.0 mi West 27.6 mph 35.7 mph N/A   Overcast
1:35 PM 21.2 °F 3.5 °F 8.6 °F 58% 29.75 in 10.0 mi West 27.6 mph 34.5 mph N/A   Overcast
1:54 PM 21.2 °F 4.2 °F 8.6 °F 58% 29.76 in 10.0 mi West 25.3 mph 34.5 mph N/A   Overcast
2:15 PM 21.2 °F 3.5 °F 12.2 °F 68% 29.76 in 3.0 mi West 27.6 mph 32.2 mph N/A Snow Light Snow
2:34 PM 21.2 °F 4.2 °F 10.4 °F 63% 29.76 in 5.0 mi WNW 25.3 mph 33.4 mph N/A Snow Light Snow
2:55 PM 21.2 °F 3.5 °F 10.4 °F 63% 29.76 in 7.0 mi West 27.6 mph 34.5 mph N/A   Overcast
3:15 PM 21.2 °F 3.3 °F 8.6 °F 58% 29.77 in 5.0 mi West 28.8 mph 35.7 mph N/A Snow Light Snow
3:35 PM 21.2 °F 4.9 °F 8.6 °F 58% 29.77 in 7.0 mi West 23.0 mph 34.5 mph N/A Snow Light Snow
4:15 PM 21.2 °F 3.9 °F 10.4 °F 63% 29.79 in 1.5 mi West 26.5 mph 35.7 mph N/A Snow Light Snow
4:35 PM 21.2 °F 4.2 °F 10.4 °F 63% 29.79 in 4.0 mi West 25.3 mph 32.2 mph N/A Snow Light Snow
4:54 PM 21.2 °F 3.0 °F 10.4 °F 63% 29.79 in 5.0 mi West 29.9 mph 34.5 mph N/A Snow Light Snow
5:15 PM 21.2 °F 4.9 °F 10.4 °F 63% 29.80 in 10.0 mi WNW 23.0 mph 35.7 mph N/A Snow Light Snow
5:34 PM 21.2 °F 4.5 °F 8.6 °F 58% 29.81 in 7.0 mi West 24.2 mph 36.8 mph N/A   Overcast
5:55 PM 21.2 °F 3.3 °F 8.6 °F 58% 29.81 in 7.0 mi West 28.8 mph 35.7 mph N/A Snow Light Snow
6:15 PM 21.2 °F 3.0 °F 8.6 °F 58% 29.82 in 7.0 mi West 29.9 mph 34.5 mph N/A Snow Light Snow
6:35 PM 19.4 °F 0.8 °F 8.6 °F 63% 29.83 in 7.0 mi West 28.8 mph 33.4 mph N/A   Overcast
6:55 PM 19.4 °F 2.8 °F 8.6 °F 63% 29.84 in 7.0 mi West 21.9 mph 35.7 mph N/A Snow Light Snow
7:14 PM 19.4 °F 1.1 °F 8.6 °F 63% 29.85 in 7.0 mi West 27.6 mph 35.7 mph N/A Snow Light Snow
7:35 PM 19.4 °F -0.3 °F 6.8 °F 58% 29.85 in 10.0 mi WNW 33.4 mph 43.7 mph N/A   Overcast
7:55 PM 19.4 °F 0.8 °F 8.6 °F 63% 29.86 in 7.0 mi West 28.8 mph 38.0 mph N/A Snow Light Snow
8:15 PM 17.6 °F -1.9 °F 6.8 °F 63% 29.87 in 10.0 mi WNW 29.9 mph 40.3 mph N/A   Overcast
8:33 PM 17.6 °F -2.5 °F 6.8 °F 63% 29.88 in 10.0 mi West 32.2 mph 40.3 mph N/A   Mostly Cloudy
8:55 PM 17.6 °F -0.6 °F 6.8 °F 63% 29.90 in 10.0 mi WNW 25.3 mph 39.1 mph N/A   Mostly Cloudy
9:15 PM 17.6 °F -0.3 °F 6.8 °F 63% 29.90 in 10.0 mi West 24.2 mph - N/A   Overcast
9:35 PM 17.6 °F -0.3 °F 6.8 °F 63% 29.91 in 10.0 mi WNW 24.2 mph 38.0 mph N/A   Overcast
9:55 PM 17.6 °F -1.6 °F 5.0 °F 58% 29.92 in 10.0 mi WNW 28.8 mph 35.7 mph N/A   Overcast
10:15 PM 17.6 °F -0.3 °F 5.0 °F 58% 29.93 in 10.0 mi West 24.2 mph 34.5 mph N/A   Overcast
10:55 PM 15.8 °F -3.4 °F 3.2 °F 58% 29.93 in 10.0 mi WNW 26.5 mph 33.4 mph N/A   Scattered Clouds
11:15 PM 15.8 °F -3.7 °F 3.2 °F 58% 29.94 in 10.0 mi WNW 27.6 mph 36.8 mph N/A   Scattered Clouds
11:35 PM 15.8 °F -4.1 °F 3.2 °F 58% 29.94 in 10.0 mi WNW 28.8 mph 38.0 mph N/A   Clear
11:55 PM 15.8 °F -3.1 °F 3.2 °F 58% 29.94 in 10.0 mi WNW 25.3 mph 36.8 mph N/A   Scattered Clouds